SCP
1 1 0 0 1 1 1 1 1 1 1 1 1 1 1 0 0 0 0 0 0 0 0 0 0 0 0 0 0 0 0 0 0 0 0 0 0 0 0 0 0 0 0
1 1 1 1 1 1 1 1 1 1 1 1 1 1 1 0 0 0 0 0 0 0 0 0 0 0 0 0 0 0 0 0 0 0 0 0 0 0 0 0 0 0 0
1 1 1 1 1 1 1 1 1 1 1 1 1 1 1 0 0 0 0 0 0 0 0 0 0 0 0 0 0 0 0 0 0 0 0 0 0 0 0 0 0 0 0
1 1 1 1 1 1 1 1 1 1 1 1 1 1 1 0 0 0 0 0 0 0 0 0 0 0 0 0 0 0 0 0 0 0 0 0 0 0 0 0 0 0 0
2 1 1 1 1 1 1 1 1 1 1 1 1 1 1 0 0 1 1 0 0 0 0 0 0 0 0 0 0 0 0 0 0 0 0 0 0 0 0 0 0 0 0
2 2 1 1 1 1 1 1 1 1 1 1 1 1 1 0 0 0 0 0 0 0 0 0 0 0 0 0 0 0 0 0 0 0 0 0 0 0 0 0 0 0 0
1 1 1 1 1 1 1 1 1 1 1 1 1 1 1 0 0 0 0 0 0 0 0 0 0 0 0 0 0 0 0 0 0 0 0 0 0 0 0 0 0 0 0
1 1 1 1 1 1 1 1 1 1 1 1 1 1 1 0 0 0 0 0 0 0 0 0 0 0 0 0 0 0 0 0 0 0 0 0 0 0 0 0 0 0 0
1 1 1 1 1 1 1 1 1 1 1 1 1 1 1 1 1 0 0 0 0 0 0 0 0 0 0 0 0 0 0 0 0 0 0 0 0 0 0 0 0 0 0
2 2 2 1 1 1 1 1 1 1 1 1 1 1 1 1 1 1 0 0 0 1 1 1 0 0 0 0 0 0 0 0 0 0 0 0 0 0 0 0 0 0 0
2 2 2 2 1 1 1 1 1 1 1 1 1 1 1 1 1 1 1 1 1 1 1 1 0 0 0 0 0 0 0 0 0 0 0 1 0 0 0 0 0 0 0
2 2 2 1 1 1 1 1 1 1 1 1 1 1 1 1 1 1 1 1 1 1 1 1 0 0 0 0 1 0 0 0 0 0 1 1 1 0 0 0 1 0 0
3 2 2 1 1 1 1 2 2 2 1 1 1 1 1 1 1 1 1 1 1 1 1 1 1 1 1 1 1 1 1 1 1 1 1 1 1 0 0 1 1 1 1
3 3 2 2 1 1 2 2 1 1 1 1 1 1 1 1 1 1 1 1 1 1 1 1 1 1 1 1 1 1 1 1 1 1 1 1 1 1 1 1 1 1 1
3 3 2 2 2 2 2 1 1 1 1 1 1 1 1 1 1 2 2 2 1 1 1 1 1 1 1 1 1 1 1 1 1 1 1 1 1 1 1 1 1 1 1
2 2 2 2 2 2 2 1 1 1 1 1 1 1 1 1 1 2 2 2 2 1 1 1 1 1 1 1 1 1 1 1 1 1 1 1 1 1 1 1 1 1 1
2 2 2 2 2 2 2 1 1 1 1 1 1 1 1 1 1 1 2 2 2 2 1 1 1 1 0 0 0 1 1 1 1 1 1 1 1 1 1 1 1 1 1
2 2 2 2 2 2 2 2 1 1 1 1 1 1 1 1 1 1 1 1 1 2 2 1 1 1 0 0 0 1 1 1 1 1 1 1 1 1 1 1 1 1 1
3 3 3 3 3 3 3 2 1 1 1 0 0 0 0 0 0 1 1 1 1 1 2 1 1 1 0 0 0 0 1 1 1 1 1 1 1 1 1 1 1 1 1
3 3 3 3 3 3 2 2 1 1 1 0 0 0 0 0 0 0 0 1 1 1 1 1 1 0 0 0 0 0 0 0 0 0 1 1 1 1 1 1 1 1 1
3 2 2 3 3 2 2 1 1 1 1 1 0 0 0 0 0 0 0 0 0 0 0 0 0 0 0 0 0 0 0 0 0 0 0 1 1 1 1 1 1 1 1
3 2 2 2 2 2 1 1 1 1 1 1 0 0 0 0 0 0 0 0 0 0 0 0 0 0 0 0 0 0 0 0 0 0 0 0 1 1 1 1 1 1 1
3 2 2 2 2 2 1 1 1 1 1 1 1 1 0 0 0 0 0 0 0 0 0 0 0 0 0 0 0 0 0 0 0 0 0 0 1 1 1 1 1 1 1
2 2 2 2 2 2 2 1 1 1 1 1 1 1 1 0 0 0 0 0 0 0 0 0 0 0 0 0 0 0 0 0 0 0 0 0 1 1 1 1 1 1 1
2 2 2 2 3 2 2 1 1 1 1 1 1 1 1 1 1 0 0 0 0 0 0 0 0 0 0 0 0 0 0 0 0 0 0 0 0 0 0 0 0 1 1
2 2 2 2 2 2 2 1 1 1 1 1 1 1 0 1 1 1 0 0 0 0 0 0 0 0 0 0 0 0 0 0 0 0 0 0 0 0 0 0 0 0 0
Wind_Speed
14 17 17 14 14 14 14 14 14 14 14 14 13 13 12 12 11 10 10 9 9 10 10 10 10 10 10 10 11 10 10 10 10 11 12 12 11 11 11 10 9 13 14
16 18 18 15 15 15 14 14 14 14 14 14 13 13 12 11 11 10 9 9 9 9 10 10 10 10 10 10 10 10 10 10 10 10 11 12 11 10 9 7 8 12 12
18 19 18 15 15 15 14 14 14 14 14 14 13 12 12 11 10 10 9 9 9 9 10 10 10 10 10 10 9 9 9 9 9 7 8 9 12 10 9 11 13 13 12
19 19 17 17 15 15 14 14 14 14 14 13 13 12 11 11 10 10 9 8 9 9 9 9 9 9 9 9 9 8 8 8 6 6 5 8 10 11 10 10 11 11 11
17 17 17 18 16 15 14 14 14 14 13 13 12 11 11 10 10 9 9 8 8 8 9 9 9 9 8 8 8 7 7 6 3 6 6 6 9 10 9 10 10 10 10
17 17 19 17 16 15 14 14 14 13 13 12 11 10 10 9 9 9 8 8 8 8 8 8 8 8 7 7 7 6 6 3 8 4 5 6 9 9 9 9 9 10 10
18 16 19 16 16 15 14 14 13 13 12 12 11 10 9 9 9 8 8 7 7 7 7 7 7 6 6 6 6 5 3 2 4 5 4 5 9 9 8 8 8 9 9
17 16 18 16 15 15 14 13 13 12 12 11 10 9 9 8 8 8 7 7 6 6 6 6 6 5 5 5 4 3 2 6 2 4 3 6 10 7 7 7 8 8 8
16 15 16 16 14 14 13 12 12 12 11 10 10 9 8 7 7 7 6 6 6 5 5 5 5 4 4 4 3 2 0 5 5 3 4 5 9 6 7 7 7 7 8
14 14 14 14 14 13 13 12 12 11 11 10 9 8 7 7 7 6 7 6 5 5 5 4 4 4 3 2 2 1 2 6 5 3 2 8 9 7 7 7 7 7 7
12 12 13 13 12 11 11 12 12 11 10 10 9 8 7 7 7 7 5 6 3 4 4 4 3 3 3 4 2 1 5 5 3 1 2 10 8 7 7 8 8 8 8
14 13 11 11 11 10 8 9 8 8 9 7 6 7 5 3 1 2 8 4 3 3 4 3 2 4 6 4 5 6 4 4 3 2 4 8 7 7 8 8 9 9 9
14 12 12 10 10 9 6 6 4 4 5 5 6 5 3 3 2 2 2 4 3 4 3 3 4 3 3 2 3 3 3 4 3 2 5 7 5 7 8 9 10 10 10
13 13 11 11 9 7 6 5 5 4 4 4 5 4 3 2 1 1 0 0 1 1 1 1 1 2 3 3 4 4 3 4 2 2 3 5 4 6 8 9 10 11 11
13 12 11 10 9 8 6 4 5 4 4 4 3 3 2 2 2 1 1 0 1 0 1 1 1 1 3 3 3 3 3 3 4 4 2 5 4 4 6 8 10 12 12
12 11 10 10 9 8 6 4 3 4 3 3 3 4 3 2 2 1 1 0 0 1 1 1 1 2 2 2 3 3 3 3 2 4 4 4 7 6 6 7 9 10 12
12 11 11 10 9 8 7 6 5 4 4 4 4 4 3 3 2 1 1 0 1 1 0 1 1 2 2 2 2 3 3 3 2 3 4 3 4 7 8 7 8 9 11
11 11 11 9 10 8 6 5 4 4 4 4 4 4 4 4 2 1 1 1 1 0 0 0 1 1 1 2 1 2 2 2 2 3 3 3 3 3 6 7 7 8 10
10 11 10 9 9 8 7 6 5 4 4 4 4 4 5 4 3 1 2 2 0 0 1 1 1 2 1 2 2 1 2 1 1 2 2 3 2 3 3 6 7 7 9
10 10 9 9 8 8 7 6 5 5 5 4 4 4 5 4 3 2 3 2 1 1 1 2 2 2 2 3 4 2 2 1 2 0 2 1 1 3 3 3 4 7 9
10 10 10 10 9 8 7 7 6 6 5 5 5 6 5 4 4 1 2 3 0 2 2 2 2 0 1 3 4 3 2 2 0 0 1 1 0 1 2 2 3 3 4
11 11 11 10 10 9 7 5 5 5 5 5 4 5 5 5 4 3 2 2 2 2 2 1 1 3 2 2 4 4 2 4 3 1 0 0 2 1 2 2 2 3 5
12 12 10 11 10 9 9 6 6 5 5 5 6 5 5 5 4 2 3 1 1 1 2 1 1 2 2 1 3 4 4 2 0 3 1 1 1 2 2 1 2 2 3
13 12 12 11 10 10 10 8 9 7 6 6 5 5 6 6 5 5 4 3 1 0 2 2 2 1 3 2 1 1 3 4 5 1 3 2 1 1 2 3 2 2 2
13 12 12 11 11 10 10 9 9 7 6 5 5 6 6 6 6 5 5 4 3 2 1 1 1 2 2 3 2 1 1 1 4 5 3 2 2 2 1 3 2 2 2
13 12 12 12 11 11 11 10 10 8 7 6 7 7 7 6 6 7 6 4 4 2 3 2 2 2 1 2 3 2 2 2 3 3 4 4 4 2 3 3 4 3 3
Wind_Direction
155 143 143 148 143 138 136 134 132 132 133 132 130 128 127 125 122 117 112 108 103 98 97 96 96 95 94 94 95 96 97 99 102 105 105 104 106 107 110 121 135 109 110
149 143 145 148 146 141 138 135 133 132 131 130 129 127 125 123 121 117 111 107 103 99 98 96 95 94 94 94 96 98 101 104 106 110 118 115 107 107 105 89 68 100 115
148 143 150 150 147 143 139 136 134 133 132 131 130 127 125 123 120 115 109 106 105 101 99 97 95 94 94 95 95 96 100 102 107 127 164 131 114 108 104 96 97 110 114
149 148 153 148 149 145 142 139 138 135 133 132 131 129 127 123 119 115 110 108 104 102 100 98 96 93 93 92 92 93 96 100 118 195 167 113 117 111 113 110 111 115 116
148 148 144 152 151 148 145 143 141 138 136 135 133 131 128 124 119 113 109 108 104 104 102 100 97 95 92 90 89 92 98 107 169 230 91 100 103 114 120 118 118 118 119
150 152 145 156 152 150 149 147 144 141 139 137 134 131 129 126 122 116 112 108 106 105 103 102 99 98 96 89 86 86 100 140 226 119 110 121 111 123 127 127 125 124 123
155 152 147 157 154 153 152 150 147 144 142 139 136 132 130 128 126 122 117 110 108 107 107 105 103 100 94 86 80 78 90 248 270 100 119 105 101 125 137 134 130 130 129
155 153 144 155 156 155 154 153 151 148 145 143 141 137 134 133 128 127 123 118 113 109 107 106 106 102 92 84 74 73 75 280 202 118 116 103 106 138 146 143 140 138 137
157 152 152 159 159 157 156 155 153 149 147 146 145 142 141 141 135 133 131 130 128 122 119 116 112 108 98 85 73 69 126 290 279 122 137 116 127 154 158 156 155 153 150
159 158 158 162 160 165 163 160 155 152 151 149 149 150 149 151 154 151 165 136 133 135 140 138 131 122 114 97 81 90 211 252 248 160 142 118 141 173 177 174 172 171 167
163 163 165 161 164 171 167 156 161 159 157 162 163 160 182 184 165 170 122 119 140 143 149 155 158 157 180 168 161 199 237 249 226 158 110 112 157 187 193 191 186 183 182
166 169 167 166 164 174 168 155 171 172 161 181 158 168 185 150 150 140 113 138 157 164 166 164 188 213 239 210 177 209 241 248 263 199 118 128 173 200 206 204 199 193 192
168 171 168 166 167 175 162 164 168 164 154 169 157 161 156 162 165 180 161 163 178 193 197 166 206 245 259 287 281 249 274 276 266 252 118 136 189 211 214 211 208 202 199
170 173 169 166 170 175 170 165 167 165 164 160 150 176 161 160 166 151 172 167 194 187 185 239 241 266 280 273 271 276 259 261 267 278 116 139 204 222 222 217 212 209 206
172 172 170 170 168 169 168 185 164 162 162 144 142 153 158 165 164 137 99 319 282 242 192 223 253 251 263 257 261 257 270 273 272 270 162 156 203 228 231 225 217 214 209
173 173 169 174 170 169 167 171 153 155 150 143 151 144 156 138 119 138 168 191 320 324 9 297 279 258 261 273 265 259 256 259 250 270 274 185 188 211 226 229 224 217 213
173 175 173 174 171 172 170 172 158 163 163 155 141 134 134 116 110 139 124 180 38 13 193 251 260 253 245 240 248 254 243 259 271 262 268 272 218 198 207 222 226 221 219
175 176 177 176 170 169 166 166 156 165 153 151 145 135 127 108 113 142 110 74 53 294 275 191 269 273 272 272 265 278 268 238 259 264 258 243 257 248 198 198 222 224 223
177 174 173 172 167 164 159 154 152 147 149 149 148 138 134 134 133 126 77 74 187 78 43 319 54 325 328 322 283 245 281 274 269 256 272 270 255 263 260 172 202 222 229
176 171 168 168 162 155 153 149 150 150 154 149 142 129 142 141 134 119 118 99 58 74 64 48 44 20 330 326 305 313 284 279 261 286 266 239 245 253 259 258 216 205 213
174 172 172 169 164 164 165 164 163 161 158 151 148 141 147 137 132 129 106 119 79 73 36 23 338 74 338 338 292 266 213 208 127 198 307 309 287 274 259 253 267 276 210
181 179 176 174 174 175 163 159 163 152 158 152 153 147 156 152 155 154 121 152 112 115 111 54 350 330 17 359 316 295 244 178 191 119 179 65 352 304 262 241 249 254 272
185 182 180 178 176 172 159 161 152 150 165 166 168 166 167 168 168 150 160 146 143 196 107 84 348 347 341 10 356 322 312 346 261 156 121 45 345 327 298 278 240 249 258
183 180 177 175 174 168 170 175 174 181 181 175 179 165 168 179 177 173 176 169 194 137 128 197 79 325 307 324 98 354 346 352 309 274 193 163 178 284 335 306 290 257 264
178 176 171 171 172 174 181 179 188 191 182 172 175 161 182 175 184 185 183 177 185 194 137 56 113 307 309 326 333 323 315 232 267 293 302 302 265 253 301 284 297 295 304
176 174 169 171 176 179 184 185 196 189 187 181 185 178 192 182 186 185 188 189 198 188 172 191 208 207 311 342 316 313 302 303 305 302 294 284 293 291 302 300 275 278 284